Вернуться в каталог

CZ-6A DEB

АктивенPO
NORAD 60972·DEBRIS·🇨🇳 China

Запущен Aug 6, 2024 с Taiyuan Satellite Launch Center

Loading…

Ближайшие Пролёты (ближайшие 24 часа)

TLE

СвежийSource: Space-Track

Эпоха: Sep 14, 2026, 00:25 UTC

1 60972U 24140LX  26257.01789325  .00001160  00000-0  47781-3 0  9990
2 60972  88.9930 263.7154 0029780 265.4732  94.3060 14.26065630107290

Отслеживайте CZ-6A DEB в реальном времени с AllMySat

Download on the App Store